Regional Weather Roundup
Issued by NWS Grand Forks, ND

Home | Current Version | Previous Version | Text Only | Print | Product List | Glossary Off
Versions: 1 2 3 4 5 6 7 8 9 10 11 12 13 14 15 16 17 18 19 20 21 22 23 24 25 26 27 28 29 30 31 32 33 34 35 36 37 38 39 40 41 42 43 44 45 46 47 48 49 50

000
ASUS43 KFGF 272331
RWRFGF
PRAIRIE TO PINES  WEATHER ROUNDUP
NATIONAL WEATHER SERVICE EASTERN NORTH DAKOTA/GRAND FORKS ND
500 PM CST THU NOV 27 2014

 **SATELLITE DATA USED TO AUGMENT SKY COVER AT AUTOMATED STATIONS**
 *****  WEATHER ACROSS EASTERN NORTH DAKOTA  *****

CITY           SKY/WX    TMP DP  RH WIND       PRES   REMARKS
GRAND FORKS    CLOUDY     4  -4  69 S12       30.28F WCI -12
GRAND FRKS AFB CLOUDY     4  -4  68 S12       30.26F WCI -12
GRAND FRKS NWS   N/A      3 N/A N/A S20         N/A  WCI -18
DEVILS LAKE    CLOUDY     7  -8  51 S14       30.11F WCI -10
FARGO          CLOUDY     9  -2  61 SE14      30.28F WCI  -7
WAHPETON ARPT  CLOUDY     7  -2  66 SE14      30.28F WCI -10
$$

 ***** WEATHER ACROSS CENTRAL AND WESTERN NORTH DAKOTA  *****

CITY           SKY/WX    TMP DP  RH WIND       PRES   REMARKS
BISMARCK       LGT SNOW  12   8  84 SE18      30.00F FOG     WCI  -6
MINOT          LGT SNOW  13   9  84 E13       29.98F FOG     WCI  -2
JAMESTOWN      LGT SNOW   5   0  79 SE14      30.12F WCI -12
MINOT AFB      CLOUDY    12  10  92 SE14      29.99S BLWGSNOWWCI  -3
GARRISON         N/A     13  11  92 SE16      29.94F WCI  -3
WILLISTON      CLOUDY    20  15  81 E12       29.85S WCI   8
DICKINSON      CLOUDY    25  20  81 S17       29.81F WCI  12
HETTINGER      CLOUDY    24  19  81 S12       29.87F WCI  13
$$

 *****  OTHER AIRPORT OBSERVATIONS IN OUR AREA  *****

CITY           SKY/WX    TMP DP  RH WIND       PRES   REMARKS
WALHALLA         N/A      7   0  72 SE10      30.22S WCI  -8
GRAFTON AIRPOR MOCLDY     5  -2  72 S16       30.26F WCI -14
VALLEY CITY AR CLOUDY     5   0  78 SE14      30.18F WCI -12
CANDO          LGT SNOW   7   1  78 SE13      30.13S WCI  -9
CAVALIER APRT  FAIR       7   0  72 S14       30.23F WCI -10
GWINNER        CLOUDY     9   0  66 SE14      30.21F WCI  -8
SHEYENNE NWR     N/A      6  -4  63 SE9       29.95  WCI  -8
ROLLA          LGT SNOW   7   1  78 S9        30.09S WCI  -7
 ***** THE ABOVE OBSERVATIONS ARE NON NWS ARE NOT QUALITY
       CONTROLLED AND MAY MIS-REPORT RAIN FOR SNOW...
$$

  *****  WEATHER ACROSS NORTHERN MINNESOTA  *****

CITY           SKY/WX    TMP DP  RH WIND       PRES   REMARKS
FLAG ISLAND    PTCLDY     0  -6  78 SE8       30.26F WCI -15
WARROAD        PTCLDY     3  -4  72 SE3       30.26F
ROSEAU         PTCLDY     3  -4  72 S7        30.26F WCI  -9
HALLOCK        MOCLDY     5  -4  66 S14       30.26F WCI -12
THF RVR FALLS  MOCLDY     3  -6  66 SE9       30.26F WCI -11
BAUDETTE       PTCLDY     2  -7  66 S5        30.28F WCI  -8
WASKISH        PTCLDY     1  -4  78 CALM      30.28F
CROOKSTON      PTCLDY     7  -2  66 S8        30.29F WCI  -6
STEPHEN NDAWN    N/A      3  -4  72 S12         N/A  WCI -13
GREENBUSH NDAW   N/A      3  -4  72 S12         N/A  WCI -13
$$
  *****  WEATHER ACROSS CENTRAL AND WEST MINNESOTA  *****

CITY           SKY/WX    TMP DP  RH WIND       PRES   REMARKS
FOSSTON        MOCLDY     0  -6  78 CALM      30.25F
BEMIDJI        MOCLDY     4  -5  66 E6        30.25F WCI  -7
PARK RAPIDS    PTCLDY     7  -5  57 S8        30.26F WCI  -6
ELBOW LAKE     CLOUDY     4  -4  68 SE13      30.28F HAZE    WCI -13
WADENA         MOCLDY     5  -4  66 S7        30.27F WCI  -7
DETROIT LAKES  PTCLDY     9   0  66 S10       30.25F WCI  -6
MOORHEAD       MOCLDY     9   1  72 S14       30.27F WCI  -8
FERGUS FALLS   PTCLDY     7  -6  56 S12       30.31F WCI  -9
MORRIS MN      MOCLDY     3  -2  78 SE15      30.28F WCI -15
STAPLES        MOCLDY     5  -6  61 S6        30.30F WCI  -6
$$
  *****  WEATHER ELSEWHERE ACROSS MINNESOTA  *****

CITY           SKY/WX    TMP DP  RH WIND       PRES   REMARKS
DULUTH         CLEAR      5  -8  55 W3        30.30F
INTRNTL FALLS  PTCLDY    -3  -8  79 CALM      30.31F
ELY            CLEAR     -6 -11  77 CALM      30.30S
CLOQUET        CLEAR      3  -6  66 CALM      30.32F
WHEATON        CLOUDY     3  -2  78 SE14      30.29F WCI -15
BRAINERD       PTCLDY     5  -6  60 S3        30.32F
HIBBING        CLEAR     -1 -10  65 W3        30.31S
ALEXANDRIA     MOCLDY     5  -3  69 SE9       30.29F WCI  -9
SAINT CLOUD    CLEAR      7  -4  60 S6        30.35F WCI  -3
MINNEAPOLIS    PTCLDY     7  -5  57 SW7       30.41F WCI  -5
$$

  *****  WEATHER ACROSS SOUTH DAKOTA  *****

CITY           SKY/WX    TMP DP  RH WIND       PRES   REMARKS
SIOUX FALLS    CLOUDY    11   2  67 SE13      30.25F WCI  -4
BROOKINGS      NOT AVBL
WATERTOWN      CLOUDY    10   3  73 SE12      30.17F WCI  -5
HURON          CLOUDY    13   5  70 SE14G23   30.18F WCI  -2
SISSETON         N/A      5  -3  69 S12       30.26F WCI -11
ABERDEEN       CLOUDY    13   5  70 SE13      30.19F WCI  -2
MITCHELL       CLOUDY    15   8  73 SE15      30.19F WCI   0
PIERRE         CLOUDY    24  15  68 SE14      30.00F WCI  12
MOBRIDGE       CLOUDY    17  11  77 SE22      29.98F WCI   0
RAPID CITY     CLEAR     34  27  75 E3        29.88F
$$

  *****  SOME WEATHER IN NEARBY STATES *****

CITY           SKY/WX    TMP DP  RH WIND       PRES   REMARKS
GLASGOW MT     CLEAR     32  28  85 E9        29.75R WCI  24
GREAT FALLS MT CLEAR     55  34  45 W29G36    29.73F
CHEYENNE WY    MOCLDY    53  21  28 W29G40    30.10F
SCOTTSBLUFF NE CLEAR     54  30  40 W12       29.98F
OMAHA NE       MOCLDY    23  10  57 SE16      30.33F WCI  10
DES MOINES IA  CLOUDY    14  -1  51 SE8       30.43F WCI   3
DAVENPORT IA   CLEAR     13   1  59 NW9       30.45S WCI   1
CHICAGO IL     MOCLDY    22  11  62 NW10      30.38R WCI  11
EAU CLAIRE WI  CLEAR      6  -5  60 CALM      30.39F
LA CROSSE WI   CLEAR      9  -2  61 N3        30.43F
$$

  *****  SOME NATIONAL WEATHER *****

CITY           SKY/WX    TMP DP  RH WIND       PRES   REMARKS
LA GUARDIA NY  MOCLDY    37  28  70 NW12      30.03R
RALEIGH NC     PTCLDY    43  33  68 NW6       30.15R
ATLANTA GA     CLOUDY    42  26  53 NW10      30.33R
NEW ORLEANS LA PTCLDY    56  35  45 N9        30.40R
OKLAHOMA CITY  PTCLDY    50  21  32 S10       30.34F
ALBUQUERQUE NM PTCLDY    59  21  23 CALM      30.34S
SALT LAKE CITY CLOUDY    55  25  31 E6        30.19F
LOS ANGELES CA MOSUNNY   74  49  41 W10       30.01S
BOISE ID       CLOUDY    55  43  63 SE7       30.05F
SEATTLE WA     MOCLDY    57  50  77 S17G26    29.79S
$$

*** WEATHER ACROSS MANITOBA...SASKATCHEWAN AND ONTARIO ***
                ***ONTARIO***

CITY           SKY/WX    TMP DP  RH WIND       PRES   REMARKS
GERALDTON      CLEAR    -11 -18  70 SW2       30.26F
THUNDER BAY    PTCLDY     1  -8  66 W5        30.36F WCI  -8
SIOUX LOOKOUT  PTCLDY    -2  -9  71 SW5       30.26F WCI -12
TORONTO        FLURRIES  30  21  69 N13       30.08R WCI  20
BIG TROUT LK   CLEAR     -6 -11  77 SW12      30.13F WCI -24
PICKLE LAKE    PTCLDY    -8 -13  77 SW9       30.20F WCI -25
DRYDEN         PTCLDY    -2  -9  71 SW7       30.26F WCI -16
KENORA         CLOUDY    -2  -8  78 S10       30.25F WCI -19
$$
                *** MANITOBA***

CITY           SKY/WX    TMP DP  RH WIND       PRES   REMARKS
BRANDON        LGT SNOW  10   5  79 SE9       30.11F WCI  -2
DAUPHIN        FLURRIES   9   3  78 SE6       30.13F WCI  -1
ISLAND LAKE    FLURRIES   0  -8  71 SW6       30.16  WCI -12
PILOT MOUND      N/A      7   1  78 S13         N/A  WCI  -9
THE PAS        CLOUDY     1  -4  78 N8        30.20R WCI -12
THOMPSON       CLEAR     -8 -13  77 VRB2      30.16R
WINNIPEG       MOCLDY     5  -2  72 S15       30.25F WCI -13
LYNN LAKE      CLEAR    -11 -17  77 NW7       30.16S WCI -26
CHURCHILL      CRYSTALS -11 -18  70 NW26G35   30.06S WCI -40
GILLAM         CLEAR     -9 -13  84 SW8       30.11S WCI -26
$$
                ***SASKATCHEWAN***

CITY           SKY/WX    TMP DP  RH WIND       PRES   REMARKS
ESTEVAN        LGT SNOW  10   7  85 E18       29.93F VSB 1   WCI  -8
KINDERSLEY     CLOUDY    14  10  85 NE24      29.84R WCI  -5
LLOYDMINSTER   LGT SNOW   1  -2  85 NE21      29.99  VSB 1   WCI -20
PRINCE ALBERT  FLURRIES   9   3  78 NE13      30.12R WCI  -7
REGINA         CLOUDY    18  14  86 E13       29.94R WCI   4
YORKTON        CLOUDY     7   3  85 E7        30.05F WCI  -5
N. BATTLEFORD  FLURRIES  10   7  85 E13G18    30.03F WCI  -5
LA RONGE       MOCLDY    -4  -9  77 N6        30.23S WCI -16
SASKATOON      FLURRIES  10   7  85 NE14      30.03R WCI  -5
SWIFT CURRENT  CLOUDY    19  18  93 SE18G25   29.76R WCI   4
$$
NOTE: THESE ARE AUTOMATED STATIONS WITH LIMITED QUALITY CONTROL
      "FAIR" INDICATES FEW OR NO CLOUDS BELOW 12,000 FEET WITH NO
      SIGNIFICANT WEATHER AND/OR OBSTRUCTIONS TO VISIBILITY.
      SKY/WX - SKY CONDITION AND SIGNIFICANT WEATHER.
      TMP - AIR TEMPERATURE.    DP   - DEWPOINT TEMPERATURE.
      RH  - RELATIVE HUMIDITY.  PRES - PRESSURE.
      HX  - HEAT INDEX.         WCI  - WIND CHILL INDEX.
$


USA.gov is the U.S. government's official web portal to all federal, state and local government web resources and services.